Weather History for Evansville, IN

Change the Weather History Date:

Tuesday, July 23, 2013

  Actual Average Record
Temperature  
Mean Temperature 82 °F 78 °F  
Max Temperature 92 °F 88 °F 104 °F (1901)
Min Temperature 71 °F 67 °F 47 °F (1947)
Degree Days  
Heating Degree Days 0 0  
Month to date heating degree days 0 0  
Since 1 June heating degree days 1 6  
Since 1 July heating degree days 0 0  
Cooling Degree Days 17 13  
Month to date cooling degree days 303 299  
Year to date cooling degree days 770 732  
Since 1 June cooling degree days 599 597  
Growing Degree Days 31 (Base 50)    
Moisture  
Dew Point 71 °F    
Average Humidity 75    
Maximum Humidity 94    
Minimum Humidity 56    
Precipitation  
Precipitation T in 0.13 in 1.63 in (1979)
Month to date precipitation 2.29 3.00  
Year to date precipitation 32.39 27.02  
Snow  
Snow 0.00 in 0.00 in - ()
Month to date snowfall 0.0 0.0  
Since 1 June snowfall 0.0 0.0  
Since 1 July snowfall 0.0 0.0  
Snow Depth 0.00 in    
Sea Level Pressure  
Sea Level Pressure 29.82 in    
Wind  
Wind Speed 7 mph (WSW)    
Max Wind Speed 14 mph    
Max Gust Speed 17 mph    
Visibility 10 miles    
Events Rain , Thunderstorm    
T = Trace of Precipitation, MM = Missing Value Source: NWS Daily Summary

Daily Weather History Graph

Daily Weather History Graph

Search for Another Location

Airport:

Trip Planner

Search our weather history database for the weather conditions in past years. The results will help you decide how hot, cold, wet, or windy it might be!

Date:

Astronomy

Jul. 23, 2013 Rise Set
Actual Time 5:45 AM CDT 8:06 PM CDT
Civil Twilight 5:15 AM CDT 8:36 PM CDT
Nautical Twilight 4:38 AM CDT 9:13 PM CDT
Astronomical Twilight 3:58 AM CDT 9:54 PM CDT
Moon 8:37 PM CDT (7/23) 6:51 AM CDT (7/23)
Length of Visible Light 15h 21m
Length of Day
14h 21m
Full, 99% of the Moon is Illuminated
Jul 23
Full
Jul 29
Last Quarter
Aug 6
New
Aug 14
First Quarter
Aug 20
Full

Hourly Weather History & Observations

Time (CDT) Temp. Heat Index Dew Point Humidity Pressure Visibility Wind Dir Wind Speed Gust Speed Precip Events Conditions
12:54 AM 75.9 °F - 71.1 °F 85% 29.86 in 10.0 mi Calm Calm - N/A   Clear
1:54 AM 75.9 °F - 72.0 °F 87% 29.85 in 9.0 mi SSW 4.6 mph - N/A   Overcast
2:54 AM 75.9 °F - 72.0 °F 87% 29.84 in 10.0 mi Calm Calm - N/A   Scattered Clouds
3:54 AM 75.9 °F - 73.0 °F 91% 29.85 in 9.0 mi SW 5.8 mph - N/A   Partly Cloudy
4:44 AM 75.2 °F - 73.4 °F 94% 29.84 in 9.0 mi SSW 6.9 mph - 0.00 in Rain , Thunderstorm Light Rain
4:54 AM 75.9 °F - 73.0 °F 91% 29.83 in 9.0 mi SW 6.9 mph - 0.00 in   Partly Cloudy
5:54 AM 73.9 °F - 70.0 °F 87% 29.80 in 9.0 mi South 5.8 mph - N/A   Partly Cloudy
6:54 AM 73.9 °F - 69.1 °F 85% 29.82 in 10.0 mi SW 3.5 mph - N/A   Clear
7:54 AM 77.0 °F - 70.0 °F 79% 29.82 in 10.0 mi SW 5.8 mph - N/A   Clear
8:54 AM 80.1 °F 84.2 °F 73.0 °F 79% 29.84 in 10.0 mi SSW 8.1 mph - N/A   Clear
9:54 AM 82.0 °F 87.9 °F 73.9 °F 76% 29.85 in 10.0 mi SW 10.4 mph - N/A   Scattered Clouds
10:54 AM 84.9 °F 92.1 °F 73.9 °F 69% 29.85 in 10.0 mi SW 9.2 mph - N/A   Clear
11:54 AM 87.1 °F 96.3 °F 75.0 °F 67% 29.83 in 10.0 mi SW 6.9 mph - N/A   Clear
12:54 PM 89.1 °F 99.1 °F 75.0 °F 63% 29.81 in 10.0 mi West 10.4 mph - N/A   Clear
1:54 PM 89.1 °F 99.1 °F 75.0 °F 63% 29.79 in 10.0 mi WSW 6.9 mph - N/A   Partly Cloudy
2:54 PM 91.0 °F 100.4 °F 73.9 °F 57% 29.79 in 10.0 mi West 9.2 mph - N/A   Partly Cloudy
3:54 PM 91.0 °F 100.4 °F 73.9 °F 57% 29.78 in 10.0 mi WNW 9.2 mph - N/A   Mostly Cloudy
4:54 PM 90.0 °F 99.0 °F 73.9 °F 59% 29.76 in 10.0 mi WSW 9.2 mph - N/A   Scattered Clouds
5:54 PM 88.0 °F 94.7 °F 72.0 °F 59% 29.75 in 10.0 mi NNW 4.6 mph - N/A Thunderstorm Partly Cloudy
6:08 PM 86.0 °F 91.8 °F 71.6 °F 62% 29.76 in 10.0 mi North 4.6 mph - N/A   Clear
6:18 PM 84.2 °F 90.9 °F 73.4 °F 70% 29.76 in 10.0 mi NE 3.5 mph - N/A Thunderstorm Thunderstorm
6:54 PM 82.9 °F 86.5 °F 69.1 °F 63% 29.75 in 10.0 mi WNW 5.8 mph - N/A Thunderstorm Thunderstorm
7:54 PM 78.1 °F - 68.0 °F 71% 29.81 in 10.0 mi SW 8.1 mph - N/A Thunderstorm Thunderstorm
8:49 PM 73.4 °F - 66.2 °F 78% 29.83 in 10.0 mi SSW 4.6 mph - N/A   Partly Cloudy
8:54 PM 73.0 °F - 66.9 °F 81% 29.82 in 10.0 mi SW 3.5 mph - N/A   Partly Cloudy
9:54 PM 72.0 °F - 64.9 °F 78% 29.87 in 10.0 mi WSW 8.1 mph - N/A   Mostly Cloudy
10:54 PM 71.1 °F - 64.9 °F 81% 29.87 in 10.0 mi West 8.1 mph - N/A   Scattered Clouds
11:54 PM 73.0 °F - 66.0 °F 79% 29.87 in 10.0 mi West 3.5 mph - N/A   Overcast